Location: Chrome
(40.5765°N, 74.2163°W)
Time: 21:45:50
(UTC+00:00)

USA 267 - Pass Details

Date: 06 December 2019
Orbit: 1100 x 1107 km, 123.0° (Epoch: 19 January)

Event Time Altitude Azimuth Distance (km) Brightness Sun altitude
Rises 22:34:34 0° 144° (SE) 3,902 6.0 -12.0°
Reaches altitude 10° 22:37:04 10° 148° (SSE) 2,947 5.4 -12.5°
Maximum altitude 22:43:29 60° 228° (SW) 1,248 3.9 -13.6°
Drops below altitude 10° 22:49:56 10° 307° (NW) 2,961 6.0 -14.8°
Sets 22:52:28 0° 311° (NW) 3,922 6.6 -15.3°
